DateTimeUTC,F1_A11,F1_S11,BsB_S11,BsG_S11,BsR_S11,BbsB_S11,BbsG_S11,BbsR_S11,BaB_A11,BaG_A11,BaR_A11,Tu_S11,T_S11,Uu_S11,U_S11,P_S11,T1_A11
2021-10-02T10:00:00Z,00000200,21000000,,,,,,,0000.24,-000.13,0000.18,16.6,23.7,,00.0,0671.6,30.9
2021-10-02T10:01:00Z,00000200,21000000,,,,,,,-000.70,0000.12,-000.10,16.6,23.7,,00.0,0671.6,30.9
2021-10-02T10:02:00Z,00000200,21000000,,,,,,,0000.24,-000.46,-000.21,16.5,23.6,,00.0,0671.6,30.9
2021-10-02T10:03:00Z,00000200,61000000,,,,,,,0007.20,0006.61,0004.71,16.5,23.6,,00.0,0671.6,30.9
2021-10-02T10:04:00Z,00000200,41000000,0001.77,0000.57,0000.48,0000.52,0000.26,-000.23,0005.17,0004.63,0003.79,16.8,23.5,,00.0,0672.5,30.9
2021-10-02T10:05:00Z,00000200,01000000,0000.93,0000.67,0000.59,-000.06,-000.17,0000.04,0001.94,0002.02,0001.32,16.9,23.4,,00.0,0672.6,30.9
2021-10-02T10:06:00Z,00000200,01000000,0001.03,0000.81,0000.53,0000.07,0000.07,0000.08,0000.90,0000.87,0000.79,16.9,23.5,,00.0,0672.6,30.9
2021-10-02T10:07:00Z,00000200,01000000,0001.14,0000.93,0000.39,0000.44,-000.19,-000.34,0001.06,0001.12,0000.69,17.0,23.5,,00.0,0672.6,30.9
2021-10-02T10:08:00Z,00000200,01000000,0001.70,0000.71,0000.20,0000.10,0000.30,-000.19,0000.50,0000.18,0000.44,17.1,23.5,,00.0,0672.6,30.9
2021-10-02T10:09:00Z,00000200,01000000,0001.29,0000.47,0000.34,0000.03,0000.20,-000.00,0000.44,0000.17,-000.14,17.1,23.5,,00.0,0672.5,31.0
2021-10-02T10:10:00Z,00000200,01000000,0001.67,0000.19,0000.55,0000.14,-000.09,-000.14,0000.31,0000.24,0000.36,17.0,23.5,,00.0,0672.5,30.9
2021-10-02T10:11:00Z,00000200,01000000,0001.15,0000.57,0000.81,0000.56,-000.12,0000.04,-000.14,0000.09,0000.01,16.9,23.4,,00.0,0672.5,30.9
2021-10-02T10:12:00Z,00000200,01000000,0000.88,0000.44,0000.61,-000.02,0000.21,-000.18,0000.08,-000.10,-000.07,16.8,23.4,,00.0,0672.5,30.9
2021-10-02T10:13:00Z,00000200,01000000,0001.06,0000.76,0000.32,0000.17,0000.07,-000.34,0000.43,0000.16,0000.22,16.8,23.4,,00.0,0672.6,30.9
2021-10-02T10:14:00Z,00000200,01000000,0000.82,0000.81,0000.35,0000.72,-000.07,-000.05,0001.57,0001.49,0001.04,16.7,23.3,,00.0,0672.5,30.9
2021-10-02T10:15:00Z,00000200,01000000,0001.21,0000.42,0000.79,0000.60,0000.05,0000.14,0005.48,0005.24,0003.76,16.6,23.3,,00.0,0672.5,30.9
2021-10-02T10:16:00Z,00000200,01000000,0001.48,0000.81,0000.31,0001.01,0000.28,0000.15,0006.85,0006.18,0004.71,16.6,23.3,,00.0,0672.5,30.9
2021-10-02T10:17:00Z,00000200,01000000,0000.75,0000.55,0000.43,0000.87,0000.35,0000.01,0004.67,0004.30,0003.26,16.6,23.3,,00.0,0672.5,30.9
2021-10-02T10:18:00Z,00000200,01000000,0000.92,0000.77,0000.15,0000.02,0000.14,-000.13,0001.60,0001.66,0001.32,16.7,23.3,,00.0,0672.5,30.9
2021-10-02T10:19:00Z,00000200,01000000,0001.18,0000.70,0000.34,-000.05,0000.03,-000.13,0000.49,0000.04,0000.22,16.7,23.3,,00.0,0672.5,30.9
2021-10-02T10:20:00Z,00000200,01000000,0000.35,0000.22,0000.40,-000.06,0000.19,0000.11,0000.57,0000.74,0000.46,16.8,23.3,,00.0,0672.5,30.9
2021-10-02T10:21:00Z,00000200,01000000,-000.04,0000.41,0000.26,0000.63,-000.04,-000.09,0000.02,0000.03,-000.15,16.8,23.4,,00.0,0672.5,30.9
2021-10-02T10:22:00Z,00000200,01000000,0000.15,0000.64,0000.61,-000.09,-000.01,0000.01,0000.20,0000.04,0000.15,16.9,23.4,,00.0,0672.5,30.9
2021-10-02T10:23:00Z,00000200,01000000,0001.69,0000.46,0000.48,0000.38,-000.13,-000.17,-000.15,-000.10,0000.09,17.0,23.4,,00.0,0672.5,30.9
2021-10-02T10:24:00Z,00000200,01000000,0000.75,0000.88,0000.20,-000.45,0000.24,-000.11,0000.18,-000.09,-000.27,17.0,23.4,,00.0,0672.5,30.9
2021-10-02T10:25:00Z,00000200,01000000,0000.65,0000.12,0000.57,0000.52,0000.10,0000.12,0000.42,0000.30,0000.52,17.0,23.4,,00.0,0672.6,30.9
2021-10-02T10:26:00Z,00000200,01000000,0000.33,0000.49,0000.59,0000.27,-000.30,0000.15,0000.18,0000.74,0000.16,16.9,23.4,,00.0,0672.5,30.9
2021-10-02T10:27:00Z,00000200,01000000,0000.65,0000.22,0000.35,-000.03,-000.17,-000.01,0000.42,0000.15,0000.38,16.8,23.4,,00.0,0672.5,30.9
2021-10-02T10:28:00Z,00000200,01000000,0001.69,0000.53,0000.61,-000.11,0000.29,0000.35,0000.52,0000.46,0000.17,16.8,23.3,,00.0,0672.5,30.9
2021-10-02T10:29:00Z,00000200,01000000,0001.59,0000.54,0000.40,0001.00,-000.03,0000.08,0000.41,0000.06,0000.28,16.7,23.3,,00.0,0672.5,30.9
2021-10-02T10:30:00Z,00000200,01000000,0000.67,0000.77,0000.56,0000.90,-000.06,0000.02,0000.26,0000.09,0000.20,16.6,23.3,,00.0,0672.5,30.9
2021-10-02T10:31:00Z,00000200,01000000,0001.17,0000.30,0000.39,-000.05,0000.10,0000.06,0000.63,0001.07,0000.38,16.6,23.2,,00.0,0672.5,30.9
2021-10-02T10:32:00Z,00000200,01000000,0000.89,0000.46,0000.55,0000.04,-000.18,0000.19,0000.81,0000.73,0000.80,16.7,23.2,,00.0,0672.5,30.9
2021-10-02T10:33:00Z,00000200,01000000,0000.16,0000.59,0000.31,0000.46,0000.51,-000.34,0000.39,0000.09,-000.15,16.7,23.3,,00.0,0672.5,30.9
2021-10-02T10:34:00Z,00000200,01000000,0000.37,0000.35,0000.51,-000.05,-000.23,0000.05,-000.11,0000.20,0000.26,16.8,23.3,,00.0,0672.5,30.9
2021-10-02T10:35:00Z,00000200,01000000,0001.16,0000.50,0000.51,0000.26,-000.04,0000.10,0000.17,-000.18,0000.02,16.8,23.3,,00.0,0672.5,30.9
2021-10-02T10:36:00Z,00000200,01000000,0001.10,0000.52,0000.56,0000.28,-000.28,-000.24,0000.50,0000.68,0000.63,16.9,23.3,,00.0,0672.5,30.9
2021-10-02T10:37:00Z,00000200,01000000,0001.02,0000.51,0000.45,-000.13,0000.16,0000.15,0002.10,0002.15,0001.14,17.0,23.4,,00.0,0672.5,30.9
2021-10-02T10:38:00Z,00000200,01000000,0001.37,0000.20,0000.17,0000.48,0000.05,-000.15,0001.53,0001.30,0001.07,17.0,23.4,,00.0,0672.5,30.9
2021-10-02T10:39:00Z,00000200,01000000,0000.85,0000.96,0000.45,0000.20,0000.39,-000.28,0000.57,0000.26,0000.19,17.1,23.4,,00.0,0672.5,31.0
2021-10-02T10:40:00Z,00000200,01000000,0000.74,0000.64,0000.45,0000.29,-000.06,-000.20,0000.22,0000.39,0000.43,17.0,23.4,,00.0,0672.5,30.9
2021-10-02T10:41:00Z,00000200,01000000,0001.18,0000.55,0000.44,0000.46,-000.11,-000.28,0000.34,0000.08,0000.16,17.0,23.4,,00.0,0672.5,30.9
2021-10-02T10:42:00Z,00000200,01000000,0001.10,0000.64,0000.43,0000.23,0000.19,-000.13,0000.71,0000.83,0000.63,16.9,23.4,,00.0,0672.5,30.9
2021-10-02T10:43:00Z,00000200,01000000,0000.59,0000.49,0000.41,0000.40,0000.08,-000.06,0000.60,0000.11,0000.24,16.8,23.3,,00.0,0672.5,30.9
2021-10-02T10:44:00Z,00000200,01000000,0001.84,0000.82,0000.57,0000.39,0000.12,-000.08,0000.06,0000.47,-000.01,16.8,23.3,,00.0,0672.5,30.9
2021-10-02T10:45:00Z,00000200,01000000,0001.04,0000.54,0000.24,-000.16,-000.03,0000.09,0000.86,0000.23,0000.64,16.7,23.3,,00.0,0672.5,30.9
2021-10-02T10:46:00Z,00000200,01000000,0001.05,0000.98,0000.26,0000.61,-000.34,-000.13,0000.27,0000.79,0000.59,16.7,23.2,,00.0,0672.5,30.9
2021-10-02T10:47:00Z,00000200,01000000,0000.83,0000.74,0000.41,0000.34,0000.01,0000.02,0000.97,0001.05,0000.13,16.7,23.2,,00.0,0672.5,30.9
2021-10-02T10:48:00Z,00000200,01000000,0001.40,0000.45,0000.48,0000.57,0000.14,0000.12,0000.70,0000.15,0000.72,16.7,23.3,,00.0,0672.5,30.9
2021-10-02T10:49:00Z,00000200,01000000,0001.24,0000.62,0000.36,0000.29,0000.16,-000.18,0000.24,0000.42,0000.37,16.8,23.3,,00.0,0672.5,30.9
2021-10-02T10:50:00Z,00000200,01000000,0001.16,0000.66,0000.39,0000.76,0000.40,0000.11,-000.04,-000.05,-000.24,16.9,23.3,,00.0,0672.5,30.9
2021-10-02T10:51:00Z,00000200,01000000,0001.36,0000.40,0000.47,0000.02,-000.03,-000.02,-000.21,0000.08,0000.06,16.9,23.3,,00.0,0672.5,30.9
2021-10-02T10:52:00Z,00000200,01000000,0001.18,0000.65,0000.48,0000.50,0000.15,-000.24,0000.03,-000.18,0000.02,17.0,23.4,,00.0,0672.5,30.9
2021-10-02T10:53:00Z,00000200,01000000,0000.41,0000.27,0000.65,0000.21,-000.39,0000.01,0000.10,-000.06,-000.19,17.1,23.4,,00.0,0672.5,30.9
2021-10-02T10:54:00Z,00000200,01000000,0000.94,0000.78,0000.48,-000.12,-000.03,0000.22,0000.08,0000.44,0000.02,17.1,23.4,,00.0,0672.5,30.9
2021-10-02T10:55:00Z,00000200,01000000,0001.30,0000.89,0000.31,0000.21,0000.17,0000.12,-000.31,-000.23,0000.08,17.0,23.4,,00.0,0672.5,30.9
2021-10-02T10:56:00Z,00000200,01000000,0000.69,0000.37,0000.43,0000.15,0000.21,-000.22,0000.15,-000.20,-000.13,17.0,23.4,,00.0,0672.5,30.9
2021-10-02T10:57:00Z,00000200,41000000,,,,,,,-000.18,-000.10,0000.04,17.0,23.4,,00.0,0672.6,30.9
2021-10-02T10:58:00Z,00000200,61000000,,,,,,,-000.09,-000.14,-000.14,16.6,23.5,,00.0,0671.5,30.9
2021-10-02T10:59:00Z,00000200,21000000,,,,,,,-000.07,0000.09,0000.01,16.5,23.6,,00.0,0671.5,30.9
